Regional Weather Roundup
Issued by NWS

Home | Current Version | Previous Version | Graphics & Text | Print | Product List | Glossary On
Versions: 1 2 3 4 5 6 7 8 9 10 11 12 13 14 15 16 17 18 19 20 21 22 23 24 25 26 27 28 29 30 31 32 33 34 35 36 37 38 39 40 41 42 43 44 45 46 47 48 49 50
154
ASUS45 KCYS 182310
RWRWY

WYOMING REGIONAL WEATHER ROUNDUP
NATIONAL WEATHER SERVICE CHEYENNE WY
400 PM MST SUN FEB 18 2018

NOTE:  "FAIR" INDICATES FEW OR NO CLOUDS BELOW 12,000 FEET
WITH NO SIGNIFICANT WEATHER AND/OR OBSTRUCTIONS TO VISIBILITY.

WYZ001-190000-
YELLOWSTONE NATIONAL PARK

CITY           SKY/WX    TMP DP  RH WIND       PRES   REMARKS
LK YELLOWSTONE   N/A     16  14  92 CALM      29.42S
W YELLOWSTONE  NOT AVBL

$$
WYZ002>013-054>058-071-098>099-190000-
NORTHERN WYOMING

CITY           SKY/WX    TMP DP  RH WIND       PRES   REMARKS
JACKSON        PTSUNNY   27  15  61 S17       29.43R WCI  14
CODY           LGT SNOW   4  -1  80 N17       29.70R VSB 1   WCI -16
GREYBULL       LGT SNOW  10   7  87 NW12      29.73R FOG     WCI  -5
WORLAND        CLOUDY    10   3  73 N14       29.73R WCI  -6
SHERIDAN       LGT SNOW   7   2  80 NW14      29.84R WCI -10
BUFFALO        LGT SNOW   4   0  83 N21       29.72R FOG     WCI -17
GILLETTE       SNOW       5   1  83 N22       29.73S VSB 1/2 WCI -16
HULETT         LGT SNOW   9   3  78 MISG      29.75R
NEWCASTLE      SNOW      16  10  79 NW14G30   29.62R VSB 1/2 WCI   1

$$
WYZ014>020-022>026-101>103-190000-
CENTRAL WYOMING

CITY           SKY/WX    TMP DP  RH WIND       PRES   REMARKS
BIG PINEY      CLOUDY    27  12  53 N9        29.47F WCI  18
PINEDALE       CLOUDY    27  14  59 NW17      29.49R WCI  14
DUBOIS         NOT AVBL
LANDER         CLOUDY    19  16  88 NE13      29.52R WCI   6
RIVERTON       CLOUDY    16  11  80 NE16      29.54R HAZE    WCI   1
CASPER         CLOUDY    10   5  80 NE14      29.62R WCI  -6
DOUGLAS        CLOUDY    15   7  70 N20G28    29.62R WCI  -2

$$
WYZ021-027>030-104>119-190000-
SOUTHERN WYOMING

CITY           SKY/WX    TMP DP  RH WIND       PRES   REMARKS
EVANSTON       LGT SNOW  26  25  96 N6        29.46F VSB 1   WCI  19
FORT BRIDGER   LGT SNOW  30  24  78 NW14G23   29.48S WCI  19
ROCK SPRINGS   FAIR      35  21  56 N21       29.46R WCI  24
DIXON          CLOUDY    44  23  43 SW14G23   29.47F
RAWLINS        CLOUDY    40  26  57 W20G25    29.42F WCI  30
SARATOGA       FAIR      45  18  33 SW25G39   29.44F
LARAMIE        FAIR      45  15  30 SW21      29.46R
CHEYENNE       FAIR      57  11  16 W21G36    29.44R
TORRINGTON     CLOUDY    27  24  89 NE24      29.55R WCI  12
PINE BLUFFS    FAIR      55  23  28 NE22G30   29.44R

$$




USA.gov is the U.S. government's official web portal to all federal, state and local government web resources and services.